SES-1

Last updated on Fri Dec 19 2025 00:02:49 GMT+0000 (Coordinated Universal Time)

1 36516U 10016A 25352.60526160 -.00000089 00000+0 00000+0 0 9998 2 36516 0.0199 319.7316 0002613 320.2323 284.3981 1.00271728 57228
UTC large
Height (km)
Speed (km/s)
/
Latitude / Longitude
Inclination (degrees)
Orbital Period (minutes)
Azimuth
Elevation
Range (km)
Doppler Factor

Next 0 passes for location: London (51.5072 / 0.1276)

Sorry there are no passes over London.